Regional Weather Roundup
Issued by NWS Cleveland, OH

Home | Current Version | Previous Version | Text Only | Print | Product List | Glossary Off
Versions: 1 2 3 4 5 6 7 8 9 10 11 12 13 14 15 16 17 18 19 20 21 22 23 24 25 26 27 28 29 30 31 32 33 34 35 36 37 38 39 40 41 42 43 44 45 46 47 48 49 50

000
ASUS41 KCLE 281300
RWRCLE
OHIO REGIONAL WEATHER ROUNDUP
NATIONAL WEATHER SERVICE WILMINGTON, OH
900 AM EDT FRI AUG 28 2015

NOTE: "FAIR" INDICATES FEW OR NO CLOUDS BELOW 12,000 FEET WITH NO
SIGNIFICANT WEATHER AND/OR OBSTRUCTIONS TO VISIBILITY.

OHZ001>008-015>018-024>027-034-035-043-044-281400-
   NORTHWEST OHIO

CITY           SKY/WX    TMP DP  RH WIND       PRES   REMARKS
DEFIANCE       PTSUNNY   60  56  86 SE3       30.21R FOG
FINDLAY        SUNNY     60  56  86 SE7       30.20R
TOLEDO EXPRESS SUNNY     58  55  90 CALM      30.21R
TOLEDO EXEC    SUNNY     61  56  83 S5        30.21S
LIMA           SUNNY     60  56  86 S3        30.20R
$$

OHZ009>014-019>023-028>033-038-089-281400-
   NORTHEAST OHIO

CITY           SKY/WX    TMP DP  RH WIND       PRES   REMARKS
CLE-HOPKINS    MOSUNNY   62  57  83 CALM      30.24R
CLE-LAKEFRONT  MOSUNNY   64  55  72 SE6       30.21R
CUY CO. ARPT   NOT AVBL
LORAIN-ELYRIA  SUNNY     58  55  90 S5        30.22S
ASHTABULA      SUNNY     57  56  96 SE3       30.24F
AKRON-CANTON   MOSUNNY   62  55  77 SE5       30.23R
WOOSTER        NOT AVBL
MANSFIELD      SUNNY     61  57  87 SE7       30.22S
YOUNGSTOWN     MOSUNNY   60  56  86 SE5       30.23S
$$

OHZ042-051>053-060>062-070>072-077>081-281400-
  SOUTHWEST OHIO

CITY           SKY/WX    TMP DP  RH WIND       PRES   REMARKS
CINC-COVINGTON NOT AVBL
CINC-LUNKEN    SUNNY     58  57  97 NE3       30.21S
HAMILTON       SUNNY     61  57  87 CALM      30.22R
DAYTON         NOT AVBL
WRIGHT-PAT AFB NOT AVBL
DAYTON GENERAL SUNNY     61  57  87 NE5       30.20S
WILMINGTON     SUNNY     61  56  83 CALM      30.20S
$$

OHZ036-037-039>041-045>050-054>059-063>069-073>076-082>088-281400-
  CENTRAL AND SOUTHEAST OHIO

CITY           SKY/WX    TMP DP  RH WIND       PRES   REMARKS
COLUMBUS       SUNNY     62  57  83 CALM      30.20S
OSU AIRPORT    SUNNY     62  57  83 CALM      30.20F
BOLTON FIELD   SUNNY     61  57  88 CALM      30.21S
RICKENBACK AFB NOT AVBL
NEWARK         SUNNY     60  56  86 CALM      30.21S
MARION         SUNNY     60  56  86 SE5       30.21S
LANCASTER      MOSUNNY   57  56  96 CALM      30.22R FOG
ZANESVILLE     SUNNY     60  55  83 CALM      30.22R HAZE
NEW PHILLY     SUNNY     59  56  89 CALM      30.23S
$$



USA.gov is the U.S. government's official web portal to all federal, state and local government web resources and services.